STARLINK-4712, 53798

Orbit data source: Space-Track

STARLINK-4712, 53798 is a payload satellite owned by SpaceX/Seattle (US) in LEO that was launched on Sun, 11 Sep 2022 UTC via an FALCON 9 launch vehicle from the Air Force Eastern Test Range (AFETR). Payload-class satellites include a variety of spacecraft equipped with specific instruments for various scientific and technological missions. These include communications satellites like Starlink; space stations such as the ISS; scientific satellites like the Hubble; Earth observation satellites from companies like Planet Labs, Umbra, and HawkEye 360; GPS; miniature CubeSats for education and research; and military/defense satellites.

Loading next visibility...
Identifier
53798, 2022-111AB
Orbit
LEO
Last TLE update
4 hours ago
Origin
Manufacturer
SpaceX/Seattle
Mission
Operational Commercial Communications
Bus & Motor
STARLINK, Unknown motor
Mass
305 kg wet, ~290 kg dry
Launch date (UTC)
2022-09-11 (3 years ago)
Launch vehicle
FALCON 9
Launch site
Air Force Eastern Test Range (AFETR)
Object type
Payload
Rocket body
Debris
Shape & HBR
Box + 1 Pan, 8.86 m
Radar Cross Section
13.562 m², Large (>1 m²)

Expand to show TLE details & history

TLE from 4 hours ago
0 STARLINK-4712
1 53798U 22111AB  25186.56051559 -.00000175  00000-0  71094-5 0  9997
2 53798  53.2183 303.1290 0001258 100.8330 259.2804 15.08833604155565
Epoch: 2025-07-05T13:27Z
TLE epoch observation values (Epoch: 2025-07-05T13:27:08.546Z)
Latitude
-0.00003°
Longitude
177.54657°
Altitude
540.822 km
Speed
7.593 km/s
True Right ascension
20h 12m 30s
True Declination
0° 00' 00"
Sunlit
Object was in full shadow at epoch
Visualization orbit readout
Latitude
29.48838°
Longitude
-28.02872°
Altitude
540.727 km
Speed
7.596 km/s
Apparent Right ascension
09h 48m 14s
Apparent Declination
-17° 22' 17"
Sunlit
Object is in daylight
Visualization observer readout
Local Sidereal Time
05:10:53
Azimuth
116.493° SE
Elevation
3.826°
Doppler factor
1
Orbital elements
Apogee altitude
540.878 km
Perigee altitude
539.137 km
Semi-major axis
6,918.145 km
Eccentricity
0.00013
Inclination
53.2183°
RAAN
303.129°
Arg. of periapsis
100.833°
True anomaly
Unknown
Mean anomaly
259.2804°
Eccentric anomaly
Unknown
Mean motion
3.77189 °/min
Orbital period
95.44 mins
BSTAR
0.0000071094
Loading maneuver chart data...
Loading SW <> Apogee altitude chart data...
Loading historical data...
Loading historical data...
Loading historical data...
Loading historical data...
Loading historical data...
Loading historical data...
Loading historical data...

STARLINK-4712 Visibility forecast

Observer location: undefined°, undefined°

Span
Click to sort rows by Start time (UTC) header in descending order
Start Az.
Max El. time (UTC)
Max El. Az.
Max El.
End time (UTC)
End Az.
5 mins2025-07-05 18:46:33.560Z278.91° WNW2025-07-05 18:49:33.560Z227.287° WSW19.907°2025-07-05 18:51:33.560Z191.362° SSW
6 mins2025-07-06 10:18:33.560Z216.208° SW2025-07-06 10:20:33.560Z161.859° S43.096°2025-07-06 10:24:33.560Z54.101° ENE
5 mins2025-07-06 11:58:33.560Z297.649° NW2025-07-06 12:00:33.560Z338.789° N21.588°2025-07-06 12:03:33.560Z28.629° NE
6 mins2025-07-06 16:59:33.560Z321.933° NNW2025-07-06 17:01:33.560Z31.239° NE42.469°2025-07-06 17:05:33.560Z120.912° SE
|